This demonstration page uses our WeatherBlox Daily Observations layout. Learn more.

36.17497, -115.13722

Hourly Observations for October 21, 2019

Temp ( °F °C ) Dew Point ( °F °C ) Humidity (%) Winds ( mph kmh ) Pressure ( in mb ) Visibility ( mi km ) Precip ( " mm )
12:53 am 00:53 Clear 57 13.9 19 -7.2 23 23 WNW 6 9 30.06 1018 10 16.09344 0 0
1:53 am 01:53 Clear 55 12.8 21 -6.1 26 26 WNW 6 9 30.06 1018 10 16.09344 0 0
2:53 am 02:53 Clear 55 12.8 20 -6.7 25 25 WNW 7 11 30.06 1018 10 16.09344 0 0
3:53 am 03:53 Clear 56 13.3 20 -6.7 24 24 Calm 30.06 1018 10 16.09344 0 0
4:53 am 04:53 Clear 54 12.2 19 -7.2 25 25 NW 3 6 30.09 1019 10 16.09344 0 0
5:53 am 05:53 Clear 54 12.2 19 -7.2 25 25 Calm 30.09 1019 10 16.09344 0 0
6:53 am 06:53 Clear 55 12.8 20 -6.7 25 25 NNW 3 6 30.12 1020 10 16.09344 0 0
7:53 am 07:53 Sunny 56 13.3 20 -6.7 24 24 W 3 6 30.15 1021 10 16.09344 0 0
8:53 am 08:53 Sunny 60 15.6 17 -8.3 19 19 S 3 6 30.18 1022 10 16.09344 0 0
9:53 am 09:53 Sunny 64 17.8 17 -8.3 16 16 S 5 7 30.18 1022 10 16.09344 0 0
10:53 am 10:53 Sunny 68 20 18 -7.8 15 15 VRB 3 6 30.18 1022 10 16.09344 0 0
11:53 am 11:53 Sunny 71 21.7 19 -7.2 14 14 ESE 6 9 30.18 1022 10 16.09344 0 0
12:53 pm 12:53 Sunny 73 22.8 19 -7.2 13 13 SSE 6 9 30.15 1021 10 16.09344 0 0
1:53 pm 13:53 Sunny 75 23.9 21 -6.1 13 13 Calm 30.12 1020 10 16.09344 0 0
2:53 pm 14:53 Sunny 76 24.4 21 -6.1 13 13 SE 6 9 30.09 1019 10 16.09344 0 0
3:53 pm 15:53 Sunny 77 25 21 -6.1 12 12 SE 8 13 30.09 1019 10 16.09344 0 0
4:53 pm 16:53 Sunny 77 25 22 -5.6 13 13 SE 8 13 30.09 1019 10 16.09344 0 0
5:53 pm 17:53 Sunny 76 24.4 24 -4.4 14 14 S 3 6 30.12 1020 10 16.09344 0 0
6:53 pm 18:53 Clear 74 23.3 24 -4.4 15 15 Calm 30.12 1020 10 16.09344 0 0
7:53 pm 19:53 Clear 69 20.6 26 -3.3 20 20 NNW 6 9 30.15 1021 10 16.09344 0 0
8:53 pm 20:53 Clear 67 19.4 27 -2.8 22 22 WNW 6 9 30.18 1022 10 16.09344 0 0
9:53 pm 21:53 Clear 64 17.8 25 -3.9 23 23 NW 3 6 30.18 1022 10 16.09344 0 0
10:53 pm 22:53 Clear 63 17.2 29 -1.7 28 28 W 5 7 30.21 1023 10 16.09344 0 0
11:53 pm 23:53 Clear 62 16.7 28 -2.2 28 28 Calm 30.21 1023 10 16.09344 0 0

Powered by AerisWeather